This is the latest recevied weather packets stored in our database for station/object IW0HP-13. If no packets are shown the sender has not sent any weather packets the latest 10 day(s).
| Time | Temp. | Humidity | Pressure | Rain* | Wind** | Luminosity | Snow |
|---|---|---|---|---|---|---|---|
| 1788156792 | 81° F | 46% | 761.2 mmHg | - | - | - | - |
| 1788155591 | 81° F | 47% | 761 mmHg | - | - | - | - |
| 1788154391 | 80° F | 51% | 760.9 mmHg | - | - | - | - |
| 1788153191 | 80° F | 53% | 760.9 mmHg | - | - | - | - |
| 1788151991 | 80° F | 55% | 760.9 mmHg | - | - | - | - |
| 1788150790 | 80° F | 56% | 760.9 mmHg | - | - | - | - |
| 1788149590 | 79° F | 57% | 760.7 mmHg | - | - | - | - |
| 1788148390 | 78° F | 60% | 760.7 mmHg | - | - | - | - |
| 1788147189 | 78° F | 60% | 760.7 mmHg | - | - | - | - |
| 1788145989 | 79° F | 56% | 760.5 mmHg | - | - | - | - |
| 1788144789 | 81° F | 52% | 760.5 mmHg | - | - | - | - |
| 1788143589 | 81° F | 53% | 760.6 mmHg | - | - | - | - |
| 1788142388 | 82° F | 52% | 760.5 mmHg | - | - | - | - |
| 1788141188 | 82° F | 51% | 760.6 mmHg | - | - | - | - |
| 1788139988 | 82° F | 51% | 760.6 mmHg | - | - | - | - |
| 1788138788 | 83° F | 51% | 760.6 mmHg | - | - | - | - |
| 1788137587 | 83° F | 52% | 760.6 mmHg | - | - | - | - |
| 1788136387 | 83° F | 52% | 760.6 mmHg | - | - | - | - |
| 1788135187 | 84° F | 51% | 760.6 mmHg | - | - | - | - |
| 1788133987 | 84° F | 51% | 760.6 mmHg | - | - | - | - |
| 1788132786 | 84° F | 50% | 760.3 mmHg | - | - | - | - |
| 1788131586 | 85° F | 49% | 760.3 mmHg | - | - | - | - |
| 1788130386 | 85° F | 47% | 760.4 mmHg | - | - | - | - |
| 1788129186 | 85° F | 47% | 760.4 mmHg | - | - | - | - |
| 1788127985 | 85° F | 46% | 760.3 mmHg | - | - | - | - |
* Rain since midnight (hover to see other rain measurements)
** Current wind speed in m/s (hover to see current wind gust speed)